Left ArrowRight Arrow

39.14045, -121.61691

Hourly Observations for June 13, 2024

Temp ( °F °C ) Dew Point ( °F °C ) Humidity (%) Winds ( mph kmh ) Pressure ( in mb ) Visibility ( mi km ) Precip ( " mm )
12:53 am 00:53 Clear 68 20 52 11.1 57 57 SSE 10 17 29.80 1009 10 16 0.00 0.00
1:53 am 01:53 Clear 66 18.9 51 10.6 59 59 SSE 15 24 29.80 1009 10 16 0.00 0.00
2:53 am 02:53 Clear 64 17.8 50 10 60 60 SE 14 22 29.81 1009 10 16 0.00 0.00
3:53 am 03:53 Clear 63 17.2 50 10 63 63 SE 14 22 29.81 1010 10 16 0.00 0.00
4:53 am 04:53 Clear 62 16.7 50 10 65 65 SSE 9 15 29.82 1010 10 16 0.00 0.00
5:53 am 05:53 Sunny 61 16.1 50 10 67 67 S 8 13 29.84 1011 10 16 0.00 0.00
6:53 am 06:53 Sunny 62 16.7 50 10 65 65 SSE 9 15 29.87 1011 10 16 0.00 0.00
7:53 am 07:53 Sunny 66 18.9 50 10 56 56 SE 13 20 29.88 1012 10 16 0.00 0.00
8:53 am 08:53 Sunny 69 20.6 50 10 51 51 S 9 15 29.90 1013 10 16 0.00 0.00
9:53 am 09:53 Sunny 73 22.8 51 10.6 46 46 SSE 14 22 29.90 1013 10 16 0.00 0.00
10:53 am 10:53 Sunny 76 24.4 52 11.1 43 43 SSE 7 11 29.91 1013 10 16 0.00 0.00
11:53 am 11:53 Sunny 80 26.7 50 10 35 35 SE 12 19 29.90 1013 10 16 0.00 0.00
12:53 pm 12:53 Sunny 83 28.3 52 11.1 34 34 SE 13 20 29.89 1012 10 16 0.00 0.00
1:53 pm 13:53 Sunny 86 30 57 13.9 37 37 VRB 7 11 29.88 1012 10 16 0.00 0.00
2:53 pm 14:53 Sunny 88 31.1 58 14.4 36 36 S 8 13 29.87 1011 10 16 0.00 0.00
3:53 pm 15:53 Sunny 92 33.3 55 12.8 29 29 S 10 17 29.85 1011 10 16 0.00 0.00
4:53 pm 16:53 Sunny 90 32.2 53 11.7 29 29 S 12 19 29.85 1011 10 16 0.00 0.00
5:53 pm 17:53 Sunny 89 31.7 52 11.1 28 28 S 12 19 29.84 1011 10 16 0.00 0.00
6:53 pm 18:53 Sunny 87 30.6 53 11.7 31 31 S 18 30 29.85 1011 10 16 0.00 0.00
7:53 pm 19:53 Sunny 83 28.3 55 12.8 38 38 S 13 20 29.86 1011 10 16 0.00 0.00
8:53 pm 20:53 Clear 77 25 54 12.2 45 45 S 9 15 29.88 1012 10 16 0.00 0.00
9:53 pm 21:53 Clear 72 22.2 53 11.7 51 51 SSE 10 17 29.91 1013 10 16 0.00 0.00
10:53 pm 22:53 Clear 68 20 52 11.1 57 57 SSE 9 15 29.92 1013 10 16 0.00 0.00
11:53 pm 23:53 Clear 66 18.9 52 11.1 61 61 SSE 9 15 29.93 1014 10 16 0.00 0.00

Powered by Vaisala Xweather